Probability
0 0 0 0 0 0 0 0 0 0 0 0 0 0 0 0 0 0 0 0 0 0 0 0 0 0 0 1 2 3 4 4 5 4 3 3 4 3 1 1 0 0 0
0 0 0 0 0 0 0 0 0 0 0 0 0 0 0 0 0 0 0 0 0 0 0 0 0 0 0 0 1 2 3 4 4 3 1 1 2 2 1 1 0 0 0
0 0 0 0 0 0 0 0 0 0 0 0 0 0 0 0 0 0 0 0 0 0 0 0 0 0 0 0 0 1 1 2 2 1 0 0 0 0 1 1 1 0 0
0 0 0 0 0 0 0 0 0 0 0 0 0 0 0 0 0 0 0 0 0 0 0 0 0 0 0 0 0 0 0 0 0 0 0 0 0 0 1 2 2 1 1
0 0 0 0 0 0 0 0 0 0 0 0 0 0 0 0 0 0 0 0 0 0 0 0 0 0 0 0 0 0 0 0 0 0 0 0 0 0 1 2 2 1 2
0 0 0 0 0 0 0 0 0 0 0 0 0 0 0 0 0 0 0 0 0 0 0 0 0 0 0 0 0 0 0 0 0 0 0 0 0 0 0 1 1 1 1
0 0 0 0 0 0 0 0 0 0 0 0 0 0 0 0 0 0 0 0 0 0 0 0 0 0 0 0 0 0 0 0 0 0 0 0 0 0 0 0 0 0 0
0 0 0 0 0 0 0 0 0 0 0 0 0 0 0 0 0 0 0 0 0 0 0 0 0 0 0 0 0 0 0 0 0 0 0 0 0 0 0 0 0 0 0
0 0 0 0 0 0 0 0 0 0 0 0 0 0 0 0 0 0 0 0 0 0 0 0 0 0 0 0 0 0 0 0 0 0 0 0 0 0 0 0 0 0 0
0 0 0 0 0 0 0 0 0 0 0 0 0 0 0 0 0 0 0 0 0 0 0 0 0 0 0 0 0 0 0 0 0 0 0 0 0 0 0 0 0 0 0
0 0 0 0 0 0 0 0 0 0 0 0 0 0 0 0 0 0 0 0 0 0 0 0 0 0 0 0 0 0 0 0 0 0 0 0 0 0 0 0 0 0 0
0 0 0 0 0 0 0 0 0 0 0 0 0 0 0 0 0 0 0 0 0 0 0 0 0 0 0 0 0 0 0 0 0 0 0 0 0 0 0 0 0 0 0
1 0 0 0 0 0 0 0 0 0 0 0 0 0 0 0 0 0 0 0 0 0 0 0 0 0 0 0 0 0 0 0 0 0 0 0 0 0 0 0 0 0 0
4 3 3 2 2 2 1 0 0 0 0 0 0 0 0 0 0 0 0 0 0 0 0 0 0 0 0 0 0 0 0 0 0 0 0 0 0 0 0 0 0 0 0
4 7 10 12 13 12 8 4 1 0 0 0 0 0 0 0 0 0 0 0 0 0 0 0 0 0 0 0 0 0 0 0 0 0 0 0 0 0 0 0 0 0 0
2 6 13 21 28 30 24 14 6 2 0 0 0 0 0 0 0 0 0 0 0 0 0 0 0 0 0 0 0 0 0 0 0 0 0 0 0 0 0 0 0 0 0
1 3 7 16 28 39 38 27 15 8 3 1 0 0 0 0 0 0 0 0 0 0 0 0 0 0 0 0 0 0 0 0 0 0 0 0 0 0 0 0 0 0 0
2 3 5 8 15 26 33 31 25 19 13 6 2 0 0 0 0 0 0 0 0 0 0 0 0 0 0 0 0 0 0 0 0 0 0 0 0 0 0 0 0 0 0
5 6 7 7 7 11 18 23 26 28 24 16 7 2 0 0 0 0 0 0 0 0 0 0 0 0 0 0 0 0 0 0 0 0 0 0 0 0 0 0 0 0 0
6 7 8 9 10 10 11 16 24 31 32 26 17 8 2 0 0 0 0 0 0 0 0 0 0 0 0 0 0 0 0 0 0 0 0 0 0 0 0 0 0 0 0
4 5 6 9 13 15 16 20 27 33 38 37 30 19 7 1 0 0 0 0 0 0 0 0 0 0 0 0 0 0 0 0 0 0 0 0 0 0 0 0 0 0 0
1 2 3 6 11 15 18 25 31 38 47 51 45 32 17 8 3 1 0 0 0 0 0 0 0 0 0 0 0 0 0 0 0 0 0 0 0 0 0 0 0 0 0
0 0 1 2 5 7 10 16 25 37 50 57 54 42 27 17 10 4 1 0 0 0 0 0 0 0 0 0 0 0 0 0 0 0 0 0 0 0 0 0 0 0 0
0 0 0 1 1 1 2 4 11 23 35 44 47 41 30 21 14 8 4 1 0 0 0 0 0 0 0 0 0 0 0 0 0 0 0 0 0 0 0 0 0 0 0
0 0 0 0 0 0 0 0 2 6 13 21 28 30 25 20 15 9 6 4 1 0 0 0 0 0 0 0 0 0 0 0 0 0 0 0 0 0 0 0 0 0 0
0 0 0 0 0 0 0 0 0 1 3 9 16 22 22 19 15 10 7 5 2 1 0 0 0 0 0 0 0 0 0 0 0 0 0 0 0 0 0 0 0 0 0
Wind_Speed
7 7 14 15 15 14 14 14 13 13 12 12 12 12 11 11 10 10 10 10 9 9 8 8 8 8 9 9 9 9 9 10 10 11 11 11 11 12 11 10 8 5 9
10 10 16 16 15 15 15 14 13 12 12 12 12 11 11 10 10 10 9 9 9 8 8 7 7 8 9 8 8 8 9 9 10 11 11 10 11 12 12 11 9 6 9
14 11 13 16 16 15 15 14 13 13 12 12 12 11 11 10 10 9 9 9 9 8 8 7 7 7 8 8 7 7 8 8 9 9 9 5 6 10 11 11 10 10 8
15 11 11 16 15 15 15 14 14 13 12 12 11 11 10 10 10 9 9 9 9 8 8 7 7 7 7 6 6 6 7 7 8 8 4 3 4 8 9 9 10 9 9
13 10 12 16 15 14 14 14 14 13 13 12 12 11 10 9 9 9 9 9 8 8 7 7 6 6 6 6 5 5 5 6 7 6 4 3 3 6 7 8 8 8 8
13 10 12 16 15 14 13 13 13 13 12 12 12 11 10 9 9 9 9 9 8 8 7 6 6 6 6 5 4 4 4 5 5 4 3 3 2 4 5 5 6 6 7
13 11 12 16 15 14 13 13 13 13 12 12 12 11 10 10 9 9 8 8 8 7 7 6 5 5 5 5 4 3 3 4 4 3 3 2 2 4 4 3 4 5 6
15 13 12 16 15 14 13 13 13 13 13 12 12 11 10 10 10 9 9 8 7 6 5 5 5 5 5 4 4 3 2 3 4 4 3 2 3 4 3 3 3 3 5
14 13 10 10 12 14 14 13 13 13 13 13 12 11 11 10 10 10 10 8 7 5 4 4 3 4 4 4 3 2 2 4 3 2 3 2 4 4 3 3 2 2 4
12 12 11 9 9 8 9 14 14 14 14 13 13 12 11 11 11 11 10 9 8 6 5 4 3 3 3 3 2 1 2 4 2 2 1 2 5 4 4 3 3 2 3
11 10 11 10 9 8 7 11 12 14 14 13 11 13 10 5 5 7 9 10 9 8 6 5 5 4 4 3 3 2 2 2 3 2 1 3 4 4 4 3 3 2 2
13 12 11 12 11 9 9 7 6 7 7 7 6 7 5 4 4 7 9 12 11 9 7 7 7 6 4 2 3 3 1 2 3 3 2 5 4 4 4 3 2 1 1
16 15 14 13 12 11 7 6 5 4 5 6 7 7 5 5 4 5 3 5 6 7 4 4 4 3 2 2 2 0 1 2 3 3 3 5 4 4 4 3 2 1 1
14 16 16 15 12 12 9 8 7 5 5 6 7 8 6 4 4 4 4 4 3 3 3 3 2 4 4 4 4 2 2 2 3 2 3 5 5 4 4 4 4 3 2
10 13 15 16 15 13 10 8 8 8 8 8 7 8 8 6 6 5 5 4 4 4 4 4 4 4 5 5 4 4 5 5 4 4 2 5 5 4 4 5 5 5 5
1 3 7 13 15 14 11 10 9 9 8 8 7 9 10 7 6 6 6 6 5 5 5 5 5 5 4 4 3 4 6 6 5 4 3 3 4 3 3 4 5 6 6
5 5 3 4 8 12 13 12 9 9 9 9 9 9 10 9 8 8 7 7 7 6 6 3 4 3 3 3 4 5 5 5 5 5 4 2 2 3 3 3 3 5 5
8 8 6 4 2 5 8 9 8 9 9 9 8 8 11 11 10 8 8 8 8 6 5 4 3 3 3 3 3 3 3 4 5 5 3 3 2 2 3 4 3 4 4
9 9 8 7 6 3 4 5 6 8 9 8 8 8 9 10 10 7 7 8 8 6 5 5 3 3 3 3 3 2 2 3 3 4 4 4 4 3 3 4 5 5 4
9 9 9 9 8 6 3 2 3 4 6 6 7 8 9 7 8 7 5 7 7 6 5 4 4 3 3 3 2 1 1 2 2 3 4 4 4 5 4 3 3 3 5
12 11 10 10 9 6 3 2 2 4 4 5 5 6 7 7 7 7 5 5 6 6 6 6 4 4 2 2 3 2 2 2 2 2 2 3 5 5 5 4 3 3 3
12 11 10 10 9 7 5 3 3 3 3 4 3 4 5 5 6 7 6 5 5 4 5 5 5 3 2 2 4 2 1 3 3 2 2 3 4 4 5 6 4 4 3
12 12 11 10 10 9 8 4 2 1 1 2 2 2 3 3 4 4 6 5 5 4 4 4 5 6 3 2 2 4 4 4 2 3 2 2 3 3 4 4 6 6 5
12 11 10 10 10 9 8 5 4 3 3 5 5 4 3 3 4 4 4 4 4 3 4 4 4 3 4 3 2 2 3 4 3 1 3 2 2 3 4 4 6 6 6
11 11 10 10 10 9 8 6 4 3 3 3 4 7 6 4 4 4 4 4 4 4 4 4 4 4 4 4 3 2 2 1 2 3 2 2 2 2 3 4 4 5 7
10 10 10 10 9 9 8 6 5 3 0 2 3 5 5 4 4 5 4 3 3 3 4 3 4 5 4 4 3 3 3 3 3 3 3 3 2 3 2 3 3 4 5
Wind_Direction
158 167 153 146 139 135 133 131 127 123 118 112 106 102 99 98 95 91 87 85 85 86 90 96 102 105 104 100 99 96 89 82 77 74 70 65 60 59 65 74 76 79 91
153 158 152 147 142 139 136 134 131 128 122 117 112 108 105 105 104 100 96 92 88 85 86 91 99 105 106 104 101 97 90 83 81 78 71 65 62 62 65 70 75 79 88
147 153 151 149 145 142 140 138 136 131 127 123 119 116 113 110 109 108 104 101 97 93 90 92 100 110 113 112 108 102 91 83 83 84 82 69 62 65 64 66 70 73 80
147 149 152 152 148 146 144 142 138 135 133 130 127 125 122 118 114 112 111 108 104 100 98 99 106 115 119 117 111 102 91 81 80 91 91 77 68 70 68 66 68 72 76
145 149 156 153 151 149 146 143 140 139 139 136 135 132 129 125 120 118 117 114 110 106 105 107 113 120 124 124 117 102 88 76 78 94 104 89 77 79 75 70 68 72 78
146 150 158 156 155 153 150 147 146 145 144 142 140 137 134 131 127 125 124 121 117 113 111 112 119 128 134 137 132 108 82 72 77 99 113 109 99 98 90 83 79 79 80
148 153 162 160 160 159 157 155 154 153 151 149 146 145 143 141 137 132 129 125 121 117 114 114 122 135 145 150 144 121 88 74 94 110 118 119 131 124 114 106 98 92 90
153 158 165 167 167 167 166 165 163 162 160 158 157 157 155 153 150 146 141 136 132 128 124 120 122 135 146 152 150 143 108 74 105 131 127 130 142 128 121 117 109 104 104
157 161 166 170 174 176 176 174 172 171 169 168 168 168 166 166 163 159 155 153 152 151 152 148 143 148 155 159 160 158 96 69 108 150 143 143 147 138 129 113 102 108 115
161 166 169 173 176 177 180 182 179 178 178 177 176 176 175 175 173 169 167 169 170 173 178 183 190 191 192 194 196 200 60 66 115 144 126 160 147 138 124 109 94 97 114
169 175 175 177 180 178 179 187 183 183 185 184 182 182 177 174 173 174 181 183 186 189 194 203 215 222 229 249 260 274 49 95 117 121 145 165 152 147 134 114 93 81 88
180 184 184 184 183 180 186 184 180 183 183 182 180 181 171 173 185 187 195 195 196 199 205 216 226 234 241 272 288 310 57 144 134 146 181 175 175 176 162 146 121 87 62
185 186 188 188 187 183 187 179 183 182 180 183 183 182 177 180 194 199 195 204 205 205 209 226 240 249 254 257 265 261 181 167 152 160 185 183 188 196 189 182 177 183 223
184 191 190 190 189 189 187 183 183 183 185 189 192 190 185 189 199 197 193 197 199 204 203 213 226 245 255 255 253 226 184 159 155 160 194 185 186 193 199 202 202 204 217
191 193 191 190 191 190 186 185 186 188 191 193 193 197 195 194 196 190 192 198 207 210 208 209 216 231 243 251 246 207 175 171 172 176 192 191 184 190 201 211 209 207 212
214 212 200 194 191 187 186 187 188 191 192 192 195 197 197 197 193 189 193 199 212 215 213 207 210 216 220 207 192 163 158 166 179 179 184 192 193 198 209 212 208 209 213
14 359 335 222 199 193 191 190 188 190 190 194 197 196 196 198 197 193 198 203 210 214 215 202 206 196 184 167 148 147 156 169 174 179 181 181 199 216 211 200 200 210 213
24 13 2 354 284 220 211 199 192 190 191 196 196 195 199 202 200 193 198 204 203 203 203 185 176 166 165 154 150 163 163 168 179 184 183 184 189 212 218 205 190 188 195
22 14 7 0 351 315 259 229 214 196 194 198 195 194 199 204 201 190 194 197 189 185 184 180 164 155 158 166 173 177 181 186 188 186 188 193 197 199 210 216 198 186 183
23 17 11 2 356 348 325 272 244 225 208 202 198 194 193 196 193 183 187 185 172 165 166 165 154 145 149 160 142 124 197 238 217 195 197 189 195 198 203 206 198 200 191
16 11 8 1 352 352 345 311 247 228 220 212 206 195 190 183 178 176 174 170 166 164 166 157 143 143 142 133 100 47 348 317 265 242 203 179 197 202 197 201 203 207 199
9 3 358 351 344 341 327 288 243 225 219 214 207 194 192 183 176 173 162 161 160 153 156 154 145 145 152 142 131 117 349 330 312 289 224 190 201 199 200 204 204 208 201
3 357 350 342 336 330 324 307 281 222 189 178 190 189 190 174 162 160 162 158 154 152 168 173 160 151 162 174 149 147 161 219 281 311 286 219 197 199 205 201 206 209 203
352 349 345 339 333 330 328 320 294 238 211 199 182 176 165 159 146 155 163 160 155 155 170 188 170 155 156 170 192 188 170 159 167 277 315 306 249 216 214 211 207 204 201
344 344 340 337 336 335 336 332 314 275 233 198 171 166 165 166 160 156 161 155 161 169 176 188 180 178 171 171 175 168 172 177 161 164 243 292 312 271 235 222 207 199 198
340 340 341 341 342 344 347 354 359 353 0 164 170 169 161 158 150 145 154 159 162 171 178 190 189 185 182 183 180 179 171 180 191 177 196 225 252 282 274 237 218 207 199